LUCH 5A (SDCM/PRN 140)

Last updated on Wed Sep 17 2025 00:03:27 GMT+0000 (Coordinated Universal Time)

1 37951U 11074B 25259.56379457 -.00000063 00000+0 00000+0 0 9995 2 37951 8.0537 77.8844 0004497 117.6770 170.3256 1.00274094 50300
UTC large
Height (km)
Speed (km/s)
/
Latitude / Longitude
Inclination (degrees)
Orbital Period (minutes)
Azimuth
Elevation
Range (km)
Doppler Factor

Next 0 passes for location: London (51.5072 / 0.1276)

Sorry there are no passes over London.